Location: Bottens
(46.6171°N, 6.6605°E)
Time: 14:47:11
(UTC+00:00)

Cosmos 1825 - Pass Details

Date: 23 October 2021
Orbit: 501 x 504 km, 82.5° (Epoch: 04 December)

Event Time Altitude Azimuth Distance (km) Brightness Sun altitude
Rises 19:50:10 0° 336° (NNW) 2,608 6.3 -34.2°
Reaches altitude 10° 19:52:43 10° 319° (NW) 1,719 5.5 -34.6°
Enters shadow 19:52:47 10° 318° (NW) 1,699 5.5 -34.7°
